Regional Weather Roundup
Issued by NWS Newport/Morehead, NC

Current Version | Previous Version | Text Only | Print | Product List | Glossary Off
Versions: 1 2 3 4 5 6 7 8 9 10 11 12 13 14 15 16 17 18 19 20 21 22 23 24 25 26 27 28 29 30 31 32 33 34 35 36 37 38 39 40 41 42 43 44 45 46 47 48 49 50
000 ASUS42 KMHX 242025 RWRMHX WEATHER ROUNDUP FOR EASTERN NORTH CAROLINA NATIONAL WEATHER SERVICE NEWPORT/MOREHEAD CITY NC 400 PM EDT TUE APR 24 2018 NOTE: "FAIR" INDICATES FEW OR NO CLOUDS BELOW 12,000 FEET WITH NO SIGNIFICANT WEATHER AND/OR OBSTRUCTIONS TO VISIBILITY NCZ015>017-031-032-045>047-102-103-242100- NORTH COAST CITY SKY/WX TMP DP RH WIND PRES REMARKS EDENTON CLOUDY 65 62 91 E20G28 29.96F ELIZABETH CITY LGT RAIN 60 60 100 E22G28 29.99F KITTY HAWK RAIN 56 56 100 E8G16 30.01F MANTEO CLOUDY 58 57 97 SE15G21 30.01F $$ NCZ045>047-081-094-103-104-242100- CENTRAL COAST CITY SKY/WX TMP DP RH WIND PRES REMARKS FRISCO LGT RAIN 67 63 87 SE23G40 29.96F $$ NCZ095-097-098-100-101-242100- SOUTHERN COAST CITY SKY/WX TMP DP RH WIND PRES REMARKS BEAUFORT LGT RAIN 63 63 100 E7 29.88F CEDAR ISLAND NOT AVBL JACKSONVILLE PTSUNNY 65 61 87 E6 29.87F PINEY ISLAND NOT AVBL WILMINGTON CLOUDY 65 59 81 E10 29.86F $$ NCZ011>013-027>030-043-044-078>080-089-090>093-098-242100- COASTAL PLAIN CITY SKY/WX TMP DP RH WIND PRES REMARKS AHOSKIE CLOUDY 61 60 98 E9G16 29.94F CLINTON CLOUDY 65 65 100 E3 29.86F ELIZABETHTOWN LGT RAIN 68 65 91 MISG 29.84F GOLDSBORO CLOUDY 66 61 85 E10 29.86F GREENVILLE FAIR 66 61 82 SE9 29.92F HAVELOCK LGT RAIN 64 64 100 SE8 29.90F FOG KENANSVILLE CLOUDY 66 61 82 E5 29.87F KINSTON CLOUDY 66 63 88 E9 29.89F NEW BERN CLOUDY 63 62 97 SE8 29.89F RICHLANDS FAIR 66 61 84 E9 29.88F ROCKY MOUNT CLOUDY 64 60 87 E6 29.89F WASHINGTON CLOUDY 64 61 89 E14G22 29.90F WHITEVILLE CLOUDY 73 66 78 SE15G22 29.82F $$ AMZ130-135-150-152-154-156-158-170-250-252-270-ANZ085-086-088-633-658-670-242100- MARINE OBSERVATIONS STATION/POSITION TIME TEMP WIND PRES WAVE SWELL AIR SEA DIR/SP/G HT/PER HT/PER (UTC) (F) (DEG/KT/KT) (MB) (FT/S) (FT/S) CHESAPEAKE LIGHT NOT AVBL 64 E VA BEACH 1950 55 50 120/ 14/ 17 1018.5 12/ 8 10/ 8 DUCK 2000 55 53 100/ 22/ 24 1015.2 2 E DUCK 2000 52 N/A 8/ 9 2/11 OREGON INLET 2000 58 54 100/ 12/ 16 1015.6 13E OREGON INLT 1948 51 N/A 14/10 13/10 HATTERAS CG 2000 66 61 140/ 20/ 27 1014.0 DIAMOND BUOY 2010 68 71 140/ 29/ 39 1014.7 CAPE LOOKOUT 1900 110/ 7/ 8 1013.6 BEAUFORT LAB 2000 62 62 70/ 6/ 8 1012.1 30 SE NEW RVR IN 2008 70 66 160/ 16/ 23 1007.6 30 SE NEW RVR IN 2000 66 N/A 14/10 5/11 27 SE WRIGHTSVLE 2008 69 65 150/ 23/ 35 1011.1 5 SE WRIGHTSVLE 1908 62 61 100/ 12/ 17 1010.8 225 S CAPE HAT 2010 72 73 140/ 27/ 37 1013.2 41 SE CHARLESTON 2010 69 210/ 17/ 21 1009.9 $$

USA.gov is the U.S. government's official web portal to all federal, state and local government web resources and services.